Private Wetterstation Wechselburg
Wetterdaten: Freitag, 27.05.2011
Datum Zeit Temp. +2m Bodentemp. Temp.+5cm Temp. Wind Windchill X Diff Temp. Feuchte +2m Feuchte +5cm Sonnenschein Luftdruck Regen Wind Richtung Richtung Sonnenschein UV Taupunkt Windchill Windben
27.05.2011 00:00 18,9 C 19,8 C 17,4 C 18,4 C 17,3 C 0,0 C 64 % 74 % 0 % 1010,8 hPa 0,0 l/m 2,1 km/h (1 Bft) W-SW 247 0 min 0,0 UV-I 11,9 C 17,3 C 2,6 km/h (1 Bft)
27.05.2011 00:10 18,9 C 19,8 C 17,5 C 18,3 C 17,2 C 0,0 C 65 % 73 % 0 % 1011,3 hPa 0,0 l/m 1,9 km/h (1 Bft) N 0 0 min 0,0 UV-I 12,2 C 17,2 C 2,3 km/h (1 Bft)
27.05.2011 00:15 18,9 C 19,8 C 17,5 C 18,3 C 17,2 C 0,0 C 65 % 74 % 0 % 1011,3 hPa 0,0 l/m 2,3 km/h (1 Bft) W-SW 247 0 min 0,0 UV-I 12,2 C 17,2 C 3,2 km/h (1 Bft)
27.05.2011 00:20 18,9 C 19,8 C 17,4 C 18,3 C 17,2 C 0,0 C 65 % 74 % 0 % 1011,3 hPa 0,0 l/m 3,9 km/h (1 Bft) W 270 0 min 0,0 UV-I 12,2 C 17,2 C 5,8 km/h (2 Bft)
27.05.2011 00:25 18,8 C 19,8 C 17,3 C 18,3 C 17,2 C 0,0 C 65 % 75 % 0 % 1011,3 hPa 0,0 l/m 5,0 km/h (1 Bft) W-NW 292 0 min 0,0 UV-I 12,1 C 17,2 C 12,6 km/h (3 Bft)
27.05.2011 00:30 18,7 C 19,7 C 17,3 C 18,2 C 17,1 C 0,0 C 66 % 74 % 0 % 1011,2 hPa 0,0 l/m 4,2 km/h (1 Bft) S-SW 202 0 min 0,0 UV-I 12,2 C 17,1 C 5,6 km/h (1 Bft)
27.05.2011 00:35 18,7 C 19,7 C 17,2 C 18,1 C 17,0 C 0,0 C 66 % 74 % 0 % 1011,2 hPa 0,0 l/m 4,0 km/h (1 Bft) S 180 0 min 0,0 UV-I 12,2 C 17,0 C 9,5 km/h (2 Bft)
27.05.2011 00:40 18,7 C 19,7 C 17,2 C 18,1 C 17,0 C 0,0 C 66 % 74 % 0 % 1011,2 hPa 0,0 l/m 4,2 km/h (1 Bft) W-SW 247 0 min 0,0 UV-I 12,2 C 17,0 C 7,7 km/h (2 Bft)
27.05.2011 00:45 18,6 C 19,7 C 17,2 C 18,0 C 16,9 C 0,0 C 66 % 74 % 0 % 1011,2 hPa 0,0 l/m 4,2 km/h (1 Bft) O-SO 112 0 min 0,0 UV-I 12,1 C 16,9 C 1,6 km/h (1 Bft)
27.05.2011 00:50 18,5 C 19,7 C 17,1 C 17,9 C 16,8 C 0,0 C 66 % 74 % 0 % 1011,1 hPa 0,0 l/m 3,4 km/h (1 Bft) S 180 0 min 0,0 UV-I 12,0 C 16,8 C 3,4 km/h (1 Bft)
27.05.2011 00:55 18,5 C 19,7 C 17,1 C 17,9 C 16,7 C 0,0 C 66 % 74 % 0 % 1011,1 hPa 0,0 l/m 2,7 km/h (1 Bft) W-SW 247 0 min 0,0 UV-I 12,0 C 16,7 C 10,3 km/h (2 Bft)
27.05.2011 01:00 18,4 C 19,7 C 17,1 C 17,9 C 16,8 C 0,0 C 67 % 74 % 0 % 1011,1 hPa 0,0 l/m 3,5 km/h (1 Bft) W 270 0 min 0,0 UV-I 12,2 C 16,8 C 2,9 km/h (1 Bft)
27.05.2011 01:10 18,5 C 19,6 C 17,1 C 17,9 C 16,8 C 0,0 C 67 % 74 % 0 % 1011,1 hPa 0,0 l/m 4,7 km/h (1 Bft) N 0 0 min 0,0 UV-I 12,3 C 16,8 C 13,4 km/h (3 Bft)
27.05.2011 01:15 18,4 C 19,7 C 17,1 C 17,9 C 16,8 C 0,0 C 67 % 75 % 0 % 1011,1 hPa 0,0 l/m 5,6 km/h (1 Bft) N-NW 337 0 min 0,0 UV-I 12,2 C 16,8 C 3,7 km/h (1 Bft)
27.05.2011 01:20 18,3 C 19,7 C 17,1 C 17,8 C 16,7 C 0,0 C 67 % 75 % 0 % 1011,1 hPa 0,0 l/m 4,7 km/h (1 Bft) SW 225 0 min 0,0 UV-I 12,1 C 16,7 C 5,3 km/h (1 Bft)
27.05.2011 01:25 18,2 C 19,7 C 16,9 C 17,7 C 16,6 C 0,0 C 66 % 75 % 0 % 1011,1 hPa 0,0 l/m 3,5 km/h (1 Bft) S-SO 157 0 min 0,0 UV-I 11,7 C 16,6 C 6,8 km/h (2 Bft)
27.05.2011 01:30 18,3 C 19,7 C 16,8 C 17,7 C 16,4 C 0,0 C 67 % 75 % 0 % 1011,2 hPa 0,0 l/m 4,3 km/h (1 Bft) W 270 0 min 0,0 UV-I 12,1 C 16,4 C 3,4 km/h (1 Bft)
27.05.2011 01:35 18,1 C 19,7 C 16,7 C 17,5 C 16,3 C 0,0 C 66 % 75 % 0 % 1011,2 hPa 0,0 l/m 4,8 km/h (1 Bft) S-SO 157 0 min 0,0 UV-I 11,6 C 16,3 C 8,4 km/h (2 Bft)
27.05.2011 01:40 18,0 C 19,7 C 16,6 C 17,4 C 16,1 C 0,0 C 66 % 75 % 0 % 1011,2 hPa 0,0 l/m 5,1 km/h (1 Bft) O-SO 112 0 min 0,0 UV-I 11,6 C 16,1 C 3,4 km/h (1 Bft)
27.05.2011 01:45 18,1 C 19,6 C 16,6 C 17,4 C 16,1 C 0,0 C 66 % 74 % 0 % 1011,2 hPa 0,0 l/m 6,3 km/h (2 Bft) S 180 0 min 0,0 UV-I 11,6 C 16,1 C 8,5 km/h (2 Bft)
27.05.2011 01:50 17,9 C 19,6 C 16,5 C 17,3 C 16,0 C 0,0 C 66 % 74 % 0 % 1011,2 hPa 0,0 l/m 5,6 km/h (1 Bft) SW 225 0 min 0,0 UV-I 11,5 C 16,0 C 3,2 km/h (1 Bft)
27.05.2011 01:55 17,9 C 19,6 C 16,4 C 17,2 C 15,9 C 0,0 C 66 % 74 % 0 % 1011,2 hPa 0,0 l/m 5,5 km/h (1 Bft) W 270 0 min 0,0 UV-I 11,5 C 15,9 C 14,3 km/h (3 Bft)
27.05.2011 02:00 17,9 C 19,6 C 16,4 C 17,2 C 15,9 C 0,0 C 66 % 74 % 0 % 1011,2 hPa 0,0 l/m 5,0 km/h (1 Bft) S-SW 202 0 min 0,0 UV-I 11,5 C 15,9 C 5,3 km/h (1 Bft)
27.05.2011 02:08 17,7 C 19,6 C 16,3 C 17,1 C 15,8 C 0,0 C 65 % 74 % 0 % 1011,2 hPa 0,0 l/m 5,0 km/h (1 Bft) N 0 0 min 0,0 UV-I 11,0 C 15,8 C 5,1 km/h (1 Bft)
27.05.2011 02:15 17,6 C 19,6 C 16,2 C 17,0 C 15,7 C 0,0 C 65 % 73 % 0 % 1011,4 hPa 0,0 l/m 5,6 km/h (1 Bft) N-NW 337 0 min 0,0 UV-I 10,9 C 15,7 C 10,9 km/h (2 Bft)
27.05.2011 02:20 17,6 C 19,5 C 16,2 C 17,0 C 15,7 C 0,0 C 65 % 73 % 0 % 1011,4 hPa 0,0 l/m 5,1 km/h (1 Bft) SW 225 0 min 0,0 UV-I 10,9 C 15,7 C 4,7 km/h (1 Bft)
27.05.2011 02:25 17,5 C 19,5 C 16,1 C 16,8 C 15,5 C 0,0 C 65 % 73 % 0 % 1011,4 hPa 0,0 l/m 4,5 km/h (1 Bft) S 180 0 min 0,0 UV-I 10,8 C 15,5 C 13,5 km/h (3 Bft)
27.05.2011 02:30 17,4 C 19,5 C 16,1 C 16,7 C 15,4 C 0,0 C 65 % 73 % 0 % 1011,8 hPa 0,0 l/m 4,3 km/h (1 Bft) W-SW 247 0 min 0,0 UV-I 10,8 C 15,4 C 10,0 km/h (2 Bft)
27.05.2011 02:35 17,5 C 19,5 C 15,9 C 16,8 C 15,4 C 0,0 C 65 % 73 % 0 % 1011,8 hPa 0,0 l/m 5,5 km/h (1 Bft) SW 225 0 min 0,0 UV-I 10,8 C 15,4 C 9,2 km/h (2 Bft)
27.05.2011 02:40 17,3 C 19,5 C 15,9 C 16,6 C 15,2 C 0,0 C 65 % 73 % 0 % 1011,8 hPa 0,0 l/m 5,8 km/h (2 Bft) S-SW 202 0 min 0,0 UV-I 10,7 C 15,2 C 6,1 km/h (2 Bft)
27.05.2011 02:45 17,3 C 19,5 C 15,7 C 16,6 C 15,1 C 0,0 C 65 % 73 % 0 % 1011,8 hPa 0,0 l/m 5,8 km/h (2 Bft) S-SW 202 0 min 0,0 UV-I 10,7 C 15,1 C 14,8 km/h (3 Bft)
27.05.2011 02:50 17,2 C 19,5 C 15,6 C 16,5 C 15,0 C 0,0 C 65 % 73 % 0 % 1011,8 hPa 0,0 l/m 5,6 km/h (1 Bft) S 180 0 min 0,0 UV-I 10,6 C 15,0 C 12,1 km/h (2 Bft)
27.05.2011 02:55 17,1 C 19,5 C 15,7 C 16,4 C 15,0 C 0,0 C 65 % 73 % 0 % 1011,8 hPa 0,0 l/m 4,8 km/h (1 Bft) W 270 0 min 0,0 UV-I 10,5 C 15,0 C 2,7 km/h (1 Bft)
27.05.2011 03:00 17,1 C 19,4 C 15,6 C 16,4 C 15,0 C 0,0 C 65 % 73 % 0 % 1011,8 hPa 0,0 l/m 5,1 km/h (1 Bft) W-SW 247 0 min 0,0 UV-I 10,5 C 15,0 C 6,3 km/h (2 Bft)
27.05.2011 03:08 17,1 C 19,4 C 15,6 C 16,4 C 14,9 C 0,0 C 65 % 73 % 0 % 1011,8 hPa 0,0 l/m 4,3 km/h (1 Bft) N 0 0 min 0,0 UV-I 10,5 C 14,9 C 0,0 km/h (0 Bft)
27.05.2011 03:15 17,0 C 19,4 C 15,5 C 16,2 C 14,6 C 0,0 C 65 % 74 % 0 % 1011,9 hPa 0,0 l/m 2,4 km/h (1 Bft) S-SO 157 0 min 0,0 UV-I 10,4 C 14,6 C 2,1 km/h (1 Bft)
27.05.2011 03:20 16,9 C 19,4 C 15,4 C 16,1 C 14,5 C 0,0 C 65 % 74 % 0 % 1011,9 hPa 0,0 l/m 1,9 km/h (1 Bft) W-NW 292 0 min 0,0 UV-I 10,3 C 14,5 C 0,0 km/h (0 Bft)
27.05.2011 03:25 16,9 C 19,4 C 15,4 C 16,1 C 14,4 C 0,0 C 66 % 74 % 0 % 1011,9 hPa 0,0 l/m 1,4 km/h (1 Bft) W-NW 292 0 min 0,0 UV-I 10,5 C 14,4 C 2,7 km/h (1 Bft)
27.05.2011 03:30 16,9 C 19,4 C 15,4 C 16,1 C 14,5 C 0,0 C 66 % 74 % 0 % 1011,9 hPa 0,0 l/m 1,8 km/h (1 Bft) O-NO 67 0 min 0,0 UV-I 10,5 C 14,5 C 6,4 km/h (2 Bft)
27.05.2011 03:35 16,8 C 19,3 C 15,3 C 16,1 C 14,6 C 0,0 C 66 % 74 % 0 % 1011,9 hPa 0,0 l/m 2,4 km/h (1 Bft) SO 135 0 min 0,0 UV-I 10,4 C 14,6 C 4,0 km/h (1 Bft)
27.05.2011 03:40 16,8 C 19,3 C 15,5 C 16,1 C 14,8 C 0,0 C 66 % 74 % 0 % 1011,9 hPa 0,0 l/m 2,6 km/h (1 Bft) NW 315 0 min 0,0 UV-I 10,4 C 14,8 C 3,7 km/h (1 Bft)
27.05.2011 03:45 16,8 C 19,3 C 15,3 C 16,1 C 14,8 C 0,0 C 66 % 74 % 0 % 1011,9 hPa 0,0 l/m 2,4 km/h (1 Bft) S 180 0 min 0,0 UV-I 10,4 C 14,8 C 5,1 km/h (1 Bft)
27.05.2011 03:50 16,8 C 19,3 C 15,3 C 16,2 C 14,9 C 0,0 C 66 % 74 % 0 % 1011,6 hPa 0,0 l/m 3,1 km/h (1 Bft) O-SO 112 0 min 0,0 UV-I 10,4 C 14,9 C 4,7 km/h (1 Bft)
27.05.2011 03:55 16,9 C 19,3 C 15,3 C 16,2 C 14,9 C 0,0 C 66 % 73 % 0 % 1011,6 hPa 0,0 l/m 3,4 km/h (1 Bft) S-SO 157 0 min 0,0 UV-I 10,5 C 14,9 C 3,4 km/h (1 Bft)
27.05.2011 04:00 16,8 C 19,3 C 15,3 C 16,1 C 14,8 C 0,0 C 65 % 73 % 0 % 1011,6 hPa 0,0 l/m 2,7 km/h (1 Bft) S-SO 157 0 min 0,0 UV-I 10,2 C 14,8 C 2,7 km/h (1 Bft)
27.05.2011 04:08 16,7 C 19,3 C 15,3 C 16,1 C 14,8 C 0,0 C 64 % 72 % 0 % 1011,6 hPa 0,0 l/m 2,4 km/h (1 Bft) N 0 0 min 0,0 UV-I 9,9 C 14,8 C 3,7 km/h (1 Bft)
27.05.2011 04:15 16,7 C 19,2 C 15,2 C 16,0 C 14,7 C 0,0 C 64 % 72 % 0 % 1011,9 hPa 0,0 l/m 3,1 km/h (1 Bft) NW 315 0 min 0,0 UV-I 9,9 C 14,7 C 2,9 km/h (1 Bft)
27.05.2011 04:20 16,7 C 19,2 C 15,2 C 16,0 C 14,6 C 0,0 C 64 % 73 % 0 % 1011,9 hPa 0,0 l/m 3,1 km/h (1 Bft) O-NO 67 0 min 0,0 UV-I 9,9 C 14,6 C 4,2 km/h (1 Bft)
27.05.2011 04:25 16,7 C 19,2 C 15,1 C 16,0 C 14,6 C 0,0 C 64 % 73 % 0 % 1011,9 hPa 0,0 l/m 3,1 km/h (1 Bft) W-SW 247 0 min 0,0 UV-I 9,9 C 14,6 C 2,6 km/h (1 Bft)
27.05.2011 04:30 16,5 C 19,2 C 15,1 C 15,8 C 14,4 C 0,0 C 63 % 72 % 0 % 1011,9 hPa 0,0 l/m 3,1 km/h (1 Bft) S-SO 157 0 min 0,0 UV-I 9,4 C 14,4 C 4,0 km/h (1 Bft)
27.05.2011 04:35 16,5 C 19,2 C 15,1 C 15,8 C 14,4 C 0,0 C 63 % 71 % 0 % 1011,9 hPa 0,0 l/m 2,9 km/h (1 Bft) W-SW 247 0 min 0,0 UV-I 9,4 C 14,4 C 3,5 km/h (1 Bft)
27.05.2011 04:40 16,4 C 19,2 C 15,1 C 15,7 C 14,4 C 0,0 C 63 % 72 % 0 % 1011,9 hPa 0,0 l/m 3,9 km/h (1 Bft) W-NW 292 0 min 0,0 UV-I 9,3 C 14,4 C 9,2 km/h (2 Bft)
27.05.2011 04:45 16,5 C 19,1 C 15,0 C 15,8 C 14,4 C 0,0 C 63 % 72 % 0 % 1011,9 hPa 0,0 l/m 4,2 km/h (1 Bft) SO 135 0 min 0,0 UV-I 9,4 C 14,4 C 6,1 km/h (2 Bft)
27.05.2011 04:50 16,4 C 19,1 C 14,9 C 15,7 C 14,4 C 0,0 C 63 % 71 % 0 % 1011,8 hPa 0,0 l/m 4,2 km/h (1 Bft) O-NO 67 0 min 0,0 UV-I 9,3 C 14,4 C 2,7 km/h (1 Bft)
27.05.2011 04:55 16,3 C 19,1 C 14,8 C 15,6 C 14,3 C 0,0 C 63 % 71 % 0 % 1011,8 hPa 0,0 l/m 4,8 km/h (1 Bft) SW 225 0 min 0,0 UV-I 9,2 C 14,3 C 14,0 km/h (3 Bft)
27.05.2011 05:00 16,2 C 19,1 C 14,9 C 15,6 C 14,3 C 0,0 C 62 % 70 % 0 % 1011,8 hPa 0,0 l/m 5,5 km/h (1 Bft) S 180 0 min 0,0 UV-I 8,9 C 14,3 C 13,0 km/h (3 Bft)
27.05.2011 05:10 16,2 C 19,1 C 14,7 C 15,6 C 14,3 C 0,0 C 62 % 70 % 0 % 1011,9 hPa 0,0 l/m 6,0 km/h (2 Bft) N 0 0 min 0,0 UV-I 8,9 C 14,3 C 16,3 km/h (3 Bft)
27.05.2011 05:15 16,1 C 19,1 C 14,6 C 15,5 C 14,2 C 0,0 C 62 % 71 % 0 % 1011,9 hPa 0,0 l/m 5,5 km/h (1 Bft) NW 315 0 min 0,0 UV-I 8,8 C 14,2 C 3,7 km/h (1 Bft)
27.05.2011 05:20 16,0 C 19,1 C 14,5 C 15,4 C 14,1 C 0,0 C 62 % 71 % 0 % 1011,9 hPa 0,0 l/m 5,5 km/h (1 Bft) S-SO 157 0 min 0,0 UV-I 8,7 C 14,1 C 5,8 km/h (2 Bft)
27.05.2011 05:25 16,1 C 19,1 C 14,4 C 15,4 C 14,0 C 0,0 C 62 % 71 % 0 % 1011,9 hPa 0,0 l/m 5,5 km/h (1 Bft) S 180 0 min 0,0 UV-I 8,8 C 14,0 C 7,9 km/h (2 Bft)
27.05.2011 05:30 16,0 C 19,1 C 14,4 C 15,3 C 13,9 C 0,0 C 62 % 71 % 0 % 1012,1 hPa 0,0 l/m 5,1 km/h (1 Bft) O-NO 67 0 min 0,0 UV-I 8,7 C 13,9 C 3,9 km/h (1 Bft)
27.05.2011 05:35 15,9 C 19,1 C 14,3 C 15,2 C 13,8 C 0,0 C 62 % 71 % 0 % 1012,1 hPa 0,0 l/m 4,7 km/h (1 Bft) W-SW 247 0 min 0,0 UV-I 8,6 C 13,8 C 8,9 km/h (2 Bft)
27.05.2011 05:40 15,9 C 19,1 C 14,3 C 15,2 C 13,8 C 0,0 C 61 % 70 % 0 % 1012,1 hPa 0,0 l/m 4,0 km/h (1 Bft) W 270 0 min 0,0 UV-I 8,4 C 13,8 C 2,4 km/h (1 Bft)
27.05.2011 05:45 15,9 C 19,1 C 14,3 C 15,2 C 13,8 C 0,0 C 61 % 70 % 0 % 1012,1 hPa 0,0 l/m 4,0 km/h (1 Bft) W-SW 247 0 min 0,0 UV-I 8,4 C 13,8 C 4,5 km/h (1 Bft)
27.05.2011 05:50 15,7 C 19,1 C 14,2 C 15,1 C 13,8 C 0,0 C 61 % 71 % 0 % 1012,1 hPa 0,0 l/m 4,3 km/h (1 Bft) SW 225 0 min 0,0 UV-I 8,2 C 13,8 C 5,3 km/h (1 Bft)
27.05.2011 05:55 15,8 C 19,0 C 14,3 C 15,1 C 13,7 C 0,0 C 62 % 70 % 0 % 1012,1 hPa 0,0 l/m 4,5 km/h (1 Bft) SW 225 0 min 0,0 UV-I 8,5 C 13,7 C 6,6 km/h (2 Bft)
27.05.2011 06:00 15,6 C 19,0 C 14,1 C 14,9 C 13,6 C 0,0 C 62 % 71 % 0 % 1012,1 hPa 0,0 l/m 4,2 km/h (1 Bft) SW 225 0 min 0,0 UV-I 8,3 C 13,6 C 14,0 km/h (3 Bft)
27.05.2011 06:08 15,6 C 19,0 C 14,1 C 14,9 C 13,6 C 0,0 C 62 % 71 % 0 % 1012,1 hPa 0,0 l/m 4,7 km/h (1 Bft) N 0 0 min 0,0 UV-I 8,3 C 13,6 C 10,5 km/h (2 Bft)
27.05.2011 06:15 15,6 C 19,0 C 14,0 C 14,9 C 13,6 C 0,0 C 62 % 70 % 0 % 1011,9 hPa 0,0 l/m 5,0 km/h (1 Bft) SW 225 0 min 0,0 UV-I 8,3 C 13,6 C 7,7 km/h (2 Bft)
27.05.2011 06:20 15,6 C 19,0 C 14,0 C 14,9 C 13,6 C 0,0 C 62 % 71 % 0 % 1011,9 hPa 0,0 l/m 5,3 km/h (1 Bft) W-NW 292 0 min 0,0 UV-I 8,3 C 13,6 C 7,2 km/h (2 Bft)
27.05.2011 06:25 15,5 C 19,0 C 14,0 C 14,9 C 13,6 C 0,0 C 61 % 71 % 0 % 1011,9 hPa 0,0 l/m 5,3 km/h (1 Bft) S 180 0 min 0,0 UV-I 8,0 C 13,6 C 7,1 km/h (2 Bft)
27.05.2011 06:30 15,5 C 19,0 C 13,9 C 14,9 C 13,6 C 0,0 C 62 % 71 % 0 % 1012,2 hPa 0,0 l/m 4,7 km/h (1 Bft) S 180 0 min 0,0 UV-I 8,3 C 13,6 C 4,8 km/h (1 Bft)
27.05.2011 06:35 15,5 C 18,9 C 13,9 C 14,9 C 13,6 C 0,0 C 62 % 71 % 0 % 1012,2 hPa 0,0 l/m 4,7 km/h (1 Bft) S-SO 157 0 min 0,0 UV-I 8,3 C 13,6 C 7,1 km/h (2 Bft)
27.05.2011 06:40 15,5 C 18,9 C 13,9 C 14,9 C 13,6 C 0,0 C 61 % 71 % 0 % 1012,2 hPa 0,0 l/m 4,3 km/h (1 Bft) S 180 0 min 0,0 UV-I 8,0 C 13,6 C 4,7 km/h (1 Bft)
27.05.2011 06:45 15,5 C 18,9 C 13,8 C 14,9 C 13,6 C 0,0 C 62 % 71 % 0 % 1012,2 hPa 0,0 l/m 3,7 km/h (1 Bft) S-SO 157 0 min 0,0 UV-I 8,3 C 13,6 C 3,4 km/h (1 Bft)
27.05.2011 06:50 15,5 C 18,9 C 13,8 C 14,9 C 13,6 C 0,0 C 61 % 71 % 0 % 1012,2 hPa 0,0 l/m 4,3 km/h (1 Bft) O-SO 112 0 min 0,0 UV-I 8,0 C 13,6 C 5,5 km/h (1 Bft)
27.05.2011 06:55 15,3 C 18,9 C 13,8 C 14,7 C 13,6 C 0,0 C 61 % 71 % 0 % 1012,2 hPa 0,0 l/m 4,8 km/h (1 Bft) SO 135 0 min 0,0 UV-I 7,8 C 13,6 C 3,7 km/h (1 Bft)
27.05.2011 07:00 15,4 C 18,9 C 13,8 C 14,8 C 13,7 C 0,0 C 62 % 71 % 0 % 1012,2 hPa 0,0 l/m 4,7 km/h (1 Bft) W-NW 292 0 min 0,0 UV-I 8,2 C 13,7 C 5,8 km/h (2 Bft)
27.05.2011 07:08 15,5 C 18,9 C 13,8 C 14,9 C 13,7 C 0,0 C 62 % 71 % 0 % 1012,2 hPa 0,0 l/m 4,7 km/h (1 Bft) N 0 0 min 0,0 UV-I 8,3 C 13,7 C 7,7 km/h (2 Bft)
27.05.2011 07:15 15,5 C 18,8 C 13,8 C 14,9 C 13,8 C 0,0 C 62 % 71 % 0 % 1013,4 hPa 0,0 l/m 4,0 km/h (1 Bft) S-SW 202 0 min 0,0 UV-I 8,3 C 13,8 C 7,1 km/h (2 Bft)
27.05.2011 07:20 15,3 C 18,8 C 13,8 C 14,8 C 13,8 C 0,0 C 61 % 71 % 0 % 1013,4 hPa 0,0 l/m 2,7 km/h (1 Bft) S 180 0 min 0,0 UV-I 7,8 C 13,8 C 4,8 km/h (1 Bft)
27.05.2011 07:25 15,4 C 18,8 C 13,8 C 14,9 C 13,9 C 0,0 C 61 % 71 % 0 % 1013,4 hPa 0,0 l/m 2,1 km/h (1 Bft) W-SW 247 0 min 0,1 UV-I 7,9 C 13,9 C 2,4 km/h (1 Bft)
27.05.2011 07:30 15,5 C 18,8 C 13,8 C 15,0 C 14,0 C 0,0 C 60 % 71 % 0 % 1013,0 hPa 0,0 l/m 0,8 km/h (0 Bft) S-SO 157 0 min 0,1 UV-I 7,8 C 14,0 C 2,9 km/h (1 Bft)
27.05.2011 07:35 15,5 C 18,8 C 13,8 C 15,0 C 14,1 C 0,0 C 60 % 71 % 0 % 1013,0 hPa 0,0 l/m 1,3 km/h (1 Bft) W-SW 247 0 min 0,1 UV-I 7,8 C 14,1 C 2,1 km/h (1 Bft)
27.05.2011 07:40 15,5 C 18,8 C 13,8 C 15,1 C 14,3 C 0,0 C 60 % 71 % 0 % 1013,0 hPa 0,0 l/m 1,8 km/h (1 Bft) SO 135 0 min 0,1 UV-I 7,8 C 14,3 C 3,7 km/h (1 Bft)
27.05.2011 07:45 15,5 C 18,7 C 13,8 C 15,1 C 14,4 C 0,0 C 60 % 69 % 0 % 1013,0 hPa 0,0 l/m 1,8 km/h (1 Bft) O-NO 67 0 min 0,1 UV-I 7,8 C 14,4 C 2,1 km/h (1 Bft)
27.05.2011 07:50 15,4 C 18,7 C 13,9 C 15,1 C 14,4 C 0,0 C 60 % 69 % 0 % 1013,8 hPa 0,0 l/m 1,8 km/h (1 Bft) S-SO 157 0 min 0,1 UV-I 7,7 C 14,4 C 5,5 km/h (1 Bft)
27.05.2011 07:55 15,4 C 18,7 C 14,0 C 15,1 C 14,6 C 0,0 C 60 % 70 % 0 % 1013,8 hPa 0,0 l/m 1,8 km/h (1 Bft) SO 135 0 min 0,1 UV-I 7,7 C 14,6 C 1,8 km/h (1 Bft)
27.05.2011 08:00 15,5 C 18,7 C 14,0 C 15,2 C 14,7 C 0,0 C 60 % 69 % 0 % 1013,8 hPa 0,0 l/m 2,7 km/h (1 Bft) S 180 0 min 0,2 UV-I 7,8 C 14,7 C 2,9 km/h (1 Bft)
27.05.2011 08:08 15,5 C 18,7 C 14,0 C 15,3 C 14,8 C 0,0 C 60 % 69 % 0 % 1013,8 hPa 0,0 l/m 2,9 km/h (1 Bft) N 0 0 min 0,2 UV-I 7,8 C 14,8 C 3,7 km/h (1 Bft)
27.05.2011 08:15 15,5 C 18,6 C 14,0 C 15,3 C 15,0 C 0,0 C 60 % 69 % 0 % 1013,9 hPa 0,0 l/m 2,9 km/h (1 Bft) O-SO 112 0 min 0,3 UV-I 7,8 C 15,0 C 3,1 km/h (1 Bft)
27.05.2011 08:20 15,7 C 18,6 C 14,1 C 15,5 C 15,2 C 0,0 C 60 % 68 % 0 % 1013,9 hPa 0,0 l/m 3,2 km/h (1 Bft) SW 225 0 min 0,3 UV-I 8,0 C 15,2 C 4,3 km/h (1 Bft)
27.05.2011 08:25 15,6 C 18,6 C 14,1 C 15,5 C 15,2 C 0,0 C 60 % 69 % 0 % 1013,9 hPa 0,0 l/m 3,1 km/h (1 Bft) SW 225 0 min 0,3 UV-I 7,9 C 15,2 C 3,5 km/h (1 Bft)
27.05.2011 08:30 15,6 C 18,6 C 14,0 C 15,5 C 15,3 C 0,0 C 60 % 70 % 0 % 1013,8 hPa 0,0 l/m 2,1 km/h (1 Bft) S-SO 157 0 min 0,3 UV-I 7,9 C 15,3 C 3,5 km/h (1 Bft)
27.05.2011 08:35 15,7 C 18,5 C 14,1 C 15,6 C 15,4 C 0,0 C 60 % 69 % 0 % 1013,8 hPa 0,0 l/m 1,9 km/h (1 Bft) NO 45 0 min 0,4 UV-I 8,0 C 15,4 C 0,0 km/h (0 Bft)
27.05.2011 08:40 15,7 C 18,5 C 14,0 C 15,5 C 15,0 C 0,0 C 60 % 70 % 0 % 1013,8 hPa 0,0 l/m 1,6 km/h (1 Bft) S-SW 202 0 min 0,3 UV-I 8,0 C 15,0 C 0,0 km/h (0 Bft)
27.05.2011 08:45 15,6 C 18,5 C 14,0 C 15,4 C 14,9 C 0,0 C 60 % 71 % 0 % 1013,8 hPa 0,0 l/m 1,4 km/h (1 Bft) S 180 0 min 0,3 UV-I 7,9 C 14,9 C 2,9 km/h (1 Bft)
27.05.2011 08:50 15,7 C 18,5 C 13,9 C 15,5 C 15,0 C 0,0 C 60 % 69 % 0 % 1014,1 hPa 0,0 l/m 1,3 km/h (1 Bft) SW 225 0 min 0,4 UV-I 8,0 C 15,0 C 2,1 km/h (1 Bft)
27.05.2011 08:55 15,8 C 18,5 C 13,9 C 15,6 C 15,2 C 0,0 C 60 % 70 % 0 % 1014,1 hPa 0,0 l/m 1,8 km/h (1 Bft) SW 225 0 min 0,4 UV-I 8,1 C 15,2 C 3,9 km/h (1 Bft)
27.05.2011 09:00 15,9 C 18,5 C 13,9 C 16,5 C 16,5 C 0,6 C 59 % 70 % 16 % 1014,1 hPa 0,0 l/m 2,3 km/h (1 Bft) SO 135 0 min 0,6 UV-I 7,9 C 16,5 C 5,1 km/h (1 Bft)
27.05.2011 09:08 15,9 C 18,5 C 14,0 C 16,4 C 16,4 C 0,5 C 59 % 69 % 13 % 1014,1 hPa 0,0 l/m 2,6 km/h (1 Bft) N 0 0 min 0,5 UV-I 7,9 C 16,4 C 3,1 km/h (1 Bft)
27.05.2011 09:15 15,9 C 18,5 C 14,0 C 16,5 C 16,5 C 0,6 C 60 % 70 % 16 % 1013,9 hPa 0,0 l/m 2,4 km/h (1 Bft) O-SO 112 0 min 0,6 UV-I 8,1 C 16,5 C 5,3 km/h (1 Bft)
27.05.2011 09:20 16,0 C 18,5 C 14,0 C 16,6 C 16,6 C 0,6 C 59 % 70 % 16 % 1013,9 hPa 0,0 l/m 3,1 km/h (1 Bft) W 270 0 min 0,7 UV-I 8,0 C 16,6 C 4,3 km/h (1 Bft)
27.05.2011 09:25 16,0 C 18,5 C 14,1 C 16,8 C 16,8 C 0,8 C 58 % 69 % 21 % 1013,9 hPa 0,0 l/m 2,9 km/h (1 Bft) SO 135 0 min 0,8 UV-I 7,7 C 16,8 C 7,2 km/h (2 Bft)
27.05.2011 09:30 16,1 C 18,4 C 14,1 C 16,9 C 16,9 C 0,8 C 58 % 68 % 21 % 1014,1 hPa 0,0 l/m 3,4 km/h (1 Bft) S 180 0 min 0,7 UV-I 7,8 C 16,9 C 4,0 km/h (1 Bft)
27.05.2011 09:35 16,2 C 18,4 C 14,1 C 17,3 C 17,3 C 1,1 C 58 % 68 % 29 % 1014,1 hPa 0,0 l/m 4,2 km/h (1 Bft) SO 135 0 min 1,0 UV-I 7,9 C 17,3 C 4,2 km/h (1 Bft)
27.05.2011 09:40 16,7 C 18,4 C 14,3 C 19,4 C 19,4 C 2,7 C 57 % 69 % 71 % 1014,1 hPa 0,0 l/m 3,5 km/h (1 Bft) SW 225 0 min 1,1 UV-I 8,1 C 19,4 C 2,4 km/h (1 Bft)
27.05.2011 09:45 16,7 C 18,4 C 14,4 C 20,3 C 20,3 C 3,6 C 57 % 68 % 95 % 1014,1 hPa 0,0 l/m 2,4 km/h (1 Bft) S 180 5 min 0,8 UV-I 8,1 C 20,3 C 4,7 km/h (1 Bft)
27.05.2011 09:50 16,9 C 18,4 C 14,6 C 20,9 C 20,9 C 4,0 C 56 % 66 % 100 % 1014,1 hPa 0,0 l/m 3,9 km/h (1 Bft) W-SW 247 5 min 0,8 UV-I 8,1 C 20,9 C 12,4 km/h (3 Bft)
27.05.2011 09:55 17,1 C 18,4 C 14,8 C 20,8 C 20,8 C 3,7 C 56 % 69 % 97 % 1014,1 hPa 0,0 l/m 5,8 km/h (2 Bft) W-SW 247 5 min 0,9 UV-I 8,3 C 20,8 C 8,9 km/h (2 Bft)
27.05.2011 10:00 17,2 C 18,4 C 14,9 C 20,6 C 20,6 C 3,4 C 54 % 64 % 89 % 1014,1 hPa 0,0 l/m 9,2 km/h (2 Bft) W-SW 247 5 min 0,9 UV-I 7,8 C 20,6 C 8,5 km/h (2 Bft)
27.05.2011 10:08 17,2 C 18,4 C 15,1 C 20,7 C 20,7 C 3,5 C 54 % 62 % 92 % 1014,1 hPa 0,0 l/m 9,5 km/h (2 Bft) N 0 8 min 0,9 UV-I 7,8 C 20,7 C 12,1 km/h (2 Bft)
27.05.2011 10:15 17,1 C 18,4 C 15,3 C 19,1 C 19,1 C 2,0 C 54 % 63 % 53 % 1013,8 hPa 0,0 l/m 7,9 km/h (2 Bft) S-SW 202 0 min 0,9 UV-I 7,7 C 19,1 C 14,6 km/h (3 Bft)
27.05.2011 10:20 17,3 C 18,4 C 15,4 C 19,5 C 19,5 C 2,2 C 53 % 60 % 58 % 1013,8 hPa 0,0 l/m 9,7 km/h (2 Bft) S 180 0 min 0,9 UV-I 7,6 C 19,5 C 17,9 km/h (3 Bft)
27.05.2011 10:25 17,4 C 18,3 C 15,6 C 19,4 C 19,4 C 2,0 C 53 % 60 % 53 % 1013,8 hPa 0,0 l/m 10,5 km/h (2 Bft) S-SW 202 0 min 1,2 UV-I 7,7 C 19,4 C 19,0 km/h (3 Bft)
27.05.2011 10:30 17,5 C 18,3 C 15,9 C 20,2 C 20,2 C 2,7 C 51 % 61 % 71 % 1014,1 hPa 0,0 l/m 9,0 km/h (2 Bft) S 180 0 min 1,8 UV-I 7,3 C 20,2 C 10,3 km/h (2 Bft)
27.05.2011 10:35 17,5 C 18,3 C 15,8 C 19,8 C 19,8 C 2,3 C 50 % 59 % 61 % 1014,1 hPa 0,0 l/m 8,5 km/h (2 Bft) W-SW 247 0 min 1,6 UV-I 7,0 C 19,8 C 21,6 km/h (4 Bft)
27.05.2011 10:40 17,6 C 18,3 C 15,8 C 19,3 C 19,3 C 1,7 C 51 % 60 % 45 % 1014,1 hPa 0,0 l/m 9,3 km/h (2 Bft) SO 135 0 min 1,5 UV-I 7,3 C 19,3 C 8,4 km/h (2 Bft)
27.05.2011 10:45 18,1 C 18,3 C 16,0 C 20,9 C 20,9 C 2,8 C 51 % 60 % 74 % 1014,1 hPa 0,0 l/m 7,6 km/h (2 Bft) NW 315 0 min 2,5 UV-I 7,8 C 20,9 C 7,1 km/h (2 Bft)
27.05.2011 10:50 18,5 C 18,3 C 16,4 C 22,7 C 22,7 C 4,2 C 50 % 58 % 100 % 1013,8 hPa 0,0 l/m 6,6 km/h (2 Bft) S 180 5 min 2,8 UV-I 7,9 C 22,7 C 10,3 km/h (2 Bft)
27.05.2011 10:55 18,7 C 18,3 C 16,7 C 23,0 C 23,0 C 4,3 C 49 % 58 % 100 % 1013,8 hPa 0,0 l/m 7,4 km/h (2 Bft) SO 135 5 min 2,0 UV-I 7,8 C 23,0 C 3,4 km/h (1 Bft)
27.05.2011 11:00 18,5 C 18,4 C 16,9 C 22,8 C 22,8 C 4,3 C 47 % 57 % 100 % 1013,8 hPa 0,0 l/m 6,8 km/h (2 Bft) SW 225 5 min 1,4 UV-I 7,0 C 22,8 C 10,5 km/h (2 Bft)
27.05.2011 11:08 18,3 C 18,3 C 16,7 C 21,2 C 21,2 C 2,9 C 48 % 54 % 76 % 1013,8 hPa 0,0 l/m 7,1 km/h (2 Bft) N 0 0 min 1,1 UV-I 7,1 C 21,2 C 12,7 km/h (3 Bft)
27.05.2011 11:15 18,8 C 18,3 C 17,0 C 21,9 C 21,9 C 3,1 C 47 % 56 % 82 % 1013,8 hPa 0,0 l/m 8,7 km/h (2 Bft) W-SW 247 0 min 2,5 UV-I 7,2 C 21,9 C 11,1 km/h (2 Bft)
27.05.2011 11:20 18,6 C 18,3 C 17,1 C 21,0 C 21,0 C 2,4 C 47 % 53 % 63 % 1013,8 hPa 0,0 l/m 8,7 km/h (2 Bft) S-SO 157 0 min 1,3 UV-I 7,1 C 21,0 C 15,1 km/h (3 Bft)
27.05.2011 11:25 18,5 C 18,3 C 16,9 C 20,0 C 20,0 C 1,5 C 47 % 53 % 39 % 1013,8 hPa 0,0 l/m 9,3 km/h (2 Bft) S 180 0 min 1,1 UV-I 7,0 C 20,0 C 11,3 km/h (2 Bft)
27.05.2011 11:30 18,6 C 18,3 C 17,0 C 20,1 C 20,1 C 1,5 C 48 % 55 % 39 % 1014,1 hPa 0,0 l/m 10,0 km/h (2 Bft) SW 225 0 min 1,2 UV-I 7,4 C 20,1 C 16,7 km/h (3 Bft)
27.05.2011 11:35 18,9 C 18,3 C 17,2 C 20,9 C 20,9 C 2,0 C 47 % 53 % 53 % 1014,1 hPa 0,0 l/m 10,8 km/h (2 Bft) W-SW 247 0 min 1,5 UV-I 7,3 C 20,9 C 12,9 km/h (3 Bft)
27.05.2011 11:40 19,1 C 18,3 C 17,6 C 22,2 C 22,2 C 3,1 C 47 % 54 % 82 % 1014,1 hPa 0,0 l/m 9,8 km/h (2 Bft) SW 225 0 min 1,5 UV-I 7,5 C 22,2 C 10,5 km/h (2 Bft)
27.05.2011 11:45 19,1 C 18,3 C 17,6 C 22,0 C 22,0 C 2,9 C 47 % 53 % 76 % 1014,1 hPa 0,0 l/m 8,2 km/h (2 Bft) S-SO 157 0 min 1,6 UV-I 7,5 C 22,0 C 6,4 km/h (2 Bft)
27.05.2011 11:50 18,7 C 18,3 C 17,5 C 20,8 C 20,8 C 2,1 C 47 % 52 % 55 % 1014,1 hPa 0,0 l/m 7,6 km/h (2 Bft) W-SW 247 0 min 1,2 UV-I 7,2 C 20,8 C 10,6 km/h (2 Bft)
27.05.2011 11:55 18,7 C 18,3 C 17,2 C 20,0 C 20,0 C 1,3 C 48 % 54 % 34 % 1014,1 hPa 0,0 l/m 6,9 km/h (2 Bft) S 180 0 min 1,2 UV-I 7,5 C 20,0 C 5,5 km/h (1 Bft)
27.05.2011 12:00 18,5 C 18,3 C 17,2 C 19,9 C 19,9 C 1,4 C 48 % 55 % 37 % 1014,1 hPa 0,0 l/m 7,2 km/h (2 Bft) S-SW 202 0 min 1,4 UV-I 7,3 C 19,9 C 7,7 km/h (2 Bft)
27.05.2011 12:08 18,5 C 18,3 C 17,2 C 19,7 C 19,7 C 1,2 C 48 % 54 % 32 % 1014,1 hPa 0,0 l/m 7,1 km/h (2 Bft) N 0 0 min 1,4 UV-I 7,3 C 19,7 C 11,1 km/h (2 Bft)
27.05.2011 12:15 18,5 C 18,3 C 16,9 C 18,9 C 18,9 C 0,4 C 49 % 56 % 11 % 1013,8 hPa 0,0 l/m 6,8 km/h (2 Bft) W 270 0 min 1,6 UV-I 7,6 C 18,9 C 8,5 km/h (2 Bft)
27.05.2011 12:20 18,5 C 18,3 C 17,0 C 18,6 C 18,6 C 0,1 C 48 % 54 % 3 % 1013,8 hPa 0,0 l/m 8,2 km/h (2 Bft) SW 225 0 min 1,4 UV-I 7,3 C 18,6 C 8,7 km/h (2 Bft)
27.05.2011 12:25 18,4 C 18,3 C 17,0 C 18,7 C 18,7 C 0,3 C 48 % 55 % 8 % 1013,8 hPa 0,0 l/m 8,4 km/h (2 Bft) S 180 0 min 1,5 UV-I 7,2 C 18,7 C 11,3 km/h (2 Bft)
27.05.2011 12:30 18,6 C 18,3 C 17,2 C 19,7 C 19,7 C 1,1 C 47 % 54 % 29 % 1013,6 hPa 0,0 l/m 7,7 km/h (2 Bft) O-SO 112 0 min 2,5 UV-I 7,1 C 19,7 C 5,0 km/h (1 Bft)
27.05.2011 12:35 18,6 C 18,3 C 17,2 C 19,7 C 19,7 C 1,1 C 47 % 54 % 29 % 1013,6 hPa 0,0 l/m 6,4 km/h (2 Bft) S-SW 202 0 min 1,6 UV-I 7,1 C 19,7 C 6,3 km/h (2 Bft)
27.05.2011 12:40 18,9 C 18,3 C 17,3 C 20,4 C 20,4 C 1,5 C 46 % 55 % 39 % 1013,6 hPa 0,0 l/m 4,2 km/h (1 Bft) S 180 0 min 2,2 UV-I 7,0 C 20,4 C 5,0 km/h (1 Bft)
27.05.2011 12:45 19,1 C 18,3 C 17,5 C 21,5 C 21,5 C 2,4 C 45 % 54 % 63 % 1013,6 hPa 0,0 l/m 4,3 km/h (1 Bft) W 270 0 min 2,7 UV-I 6,9 C 21,5 C 1,6 km/h (1 Bft)
27.05.2011 12:50 19,4 C 18,3 C 18,0 C 22,1 C 22,1 C 2,7 C 45 % 53 % 71 % 1013,8 hPa 0,0 l/m 6,6 km/h (2 Bft) SW 225 0 min 2,4 UV-I 7,2 C 22,1 C 6,4 km/h (2 Bft)
27.05.2011 12:55 19,4 C 18,3 C 18,3 C 22,4 C 22,4 C 3,0 C 45 % 50 % 79 % 1013,8 hPa 0,0 l/m 7,6 km/h (2 Bft) S 180 0 min 2,9 UV-I 7,2 C 22,4 C 12,6 km/h (3 Bft)
27.05.2011 13:00 19,5 C 18,3 C 18,3 C 21,9 C 21,9 C 2,4 C 44 % 49 % 63 % 1013,8 hPa 0,0 l/m 9,3 km/h (2 Bft) W-SW 247 0 min 2,2 UV-I 6,9 C 21,9 C 17,7 km/h (3 Bft)
27.05.2011 13:08 19,6 C 18,3 C 18,4 C 21,7 C 21,7 C 2,1 C 44 % 49 % 55 % 1013,8 hPa 0,0 l/m 10,6 km/h (2 Bft) N 0 0 min 2,8 UV-I 7,0 C 21,7 C 14,8 km/h (3 Bft)
27.05.2011 13:15 19,8 C 18,3 C 18,8 C 22,0 C 22,0 C 2,2 C 44 % 48 % 58 % 1013,9 hPa 0,0 l/m 11,1 km/h (2 Bft) SO 135 0 min 2,9 UV-I 7,2 C 22,0 C 16,4 km/h (3 Bft)
27.05.2011 13:20 19,8 C 18,3 C 18,9 C 22,0 C 22,0 C 2,2 C 43 % 49 % 58 % 1013,9 hPa 0,0 l/m 10,8 km/h (2 Bft) NO 45 0 min 2,9 UV-I 6,9 C 22,0 C 11,6 km/h (2 Bft)
27.05.2011 13:25 19,9 C 18,3 C 18,9 C 21,9 C 21,9 C 2,0 C 44 % 50 % 53 % 1013,9 hPa 0,0 l/m 9,2 km/h (2 Bft) S 180 0 min 2,5 UV-I 7,3 C 21,9 C 12,4 km/h (3 Bft)
27.05.2011 13:30 19,8 C 18,3 C 18,8 C 21,5 C 21,5 C 1,7 C 43 % 48 % 45 % 1013,9 hPa 0,0 l/m 10,3 km/h (2 Bft) SW 225 0 min 2,1 UV-I 6,9 C 21,5 C 13,5 km/h (3 Bft)
27.05.2011 13:35 19,7 C 18,3 C 18,7 C 21,5 C 21,5 C 1,8 C 43 % 48 % 47 % 1013,9 hPa 0,0 l/m 10,5 km/h (2 Bft) SW 225 0 min 2,7 UV-I 6,8 C 21,5 C 12,6 km/h (3 Bft)
27.05.2011 13:40 19,9 C 18,3 C 18,8 C 21,4 C 21,4 C 1,5 C 43 % 50 % 39 % 1013,9 hPa 0,0 l/m 9,5 km/h (2 Bft) W-SW 247 0 min 2,5 UV-I 6,9 C 21,4 C 4,8 km/h (1 Bft)
27.05.2011 13:45 19,9 C 18,3 C 18,9 C 21,6 C 21,6 C 1,7 C 43 % 51 % 45 % 1013,9 hPa 0,0 l/m 8,9 km/h (2 Bft) S-SO 157 0 min 2,5 UV-I 6,9 C 21,6 C 9,7 km/h (2 Bft)
27.05.2011 13:50 20,5 C 18,3 C 19,5 C 22,3 C 22,3 C 1,8 C 43 % 50 % 47 % 1013,6 hPa 0,0 l/m 9,3 km/h (2 Bft) SW 225 0 min 4,0 UV-I 7,5 C 22,3 C 8,7 km/h (2 Bft)
27.05.2011 13:55 20,3 C 18,3 C 19,8 C 22,8 C 22,8 C 2,5 C 42 % 47 % 66 % 1013,6 hPa 0,0 l/m 10,0 km/h (2 Bft) S 180 0 min 3,7 UV-I 7,0 C 22,8 C 9,2 km/h (2 Bft)
27.05.2011 14:00 20,0 C 18,4 C 19,5 C 22,3 C 22,3 C 2,3 C 42 % 47 % 61 % 1013,6 hPa 0,0 l/m 8,7 km/h (2 Bft) W-SW 247 0 min 2,9 UV-I 6,7 C 22,3 C 8,0 km/h (2 Bft)
27.05.2011 14:08 20,1 C 18,4 C 19,7 C 22,4 C 22,4 C 2,3 C 42 % 45 % 61 % 1013,6 hPa 0,0 l/m 8,5 km/h (2 Bft) N 0 0 min 2,9 UV-I 6,8 C 22,4 C 13,7 km/h (3 Bft)
27.05.2011 14:15 20,3 C 18,3 C 20,1 C 22,6 C 22,6 C 2,3 C 41 % 43 % 61 % 1013,6 hPa 0,0 l/m 7,9 km/h (2 Bft) SW 225 0 min 2,9 UV-I 6,6 C 22,6 C 9,3 km/h (2 Bft)
27.05.2011 14:20 20,5 C 18,3 C 20,5 C 23,1 C 23,1 C 2,6 C 41 % 43 % 68 % 1013,6 hPa 0,0 l/m 8,2 km/h (2 Bft) W-NW 292 0 min 3,7 UV-I 6,8 C 23,1 C 8,9 km/h (2 Bft)
27.05.2011 14:25 20,3 C 18,4 C 20,3 C 22,8 C 22,8 C 2,5 C 41 % 42 % 66 % 1013,6 hPa 0,0 l/m 7,2 km/h (2 Bft) S-SW 202 0 min 2,5 UV-I 6,6 C 22,8 C 5,1 km/h (1 Bft)
27.05.2011 14:30 20,0 C 18,4 C 19,6 C 21,8 C 21,8 C 1,8 C 41 % 43 % 47 % 1013,7 hPa 0,0 l/m 7,7 km/h (2 Bft) SW 225 0 min 1,9 UV-I 6,3 C 21,8 C 9,2 km/h (2 Bft)
27.05.2011 14:35 20,0 C 18,4 C 19,4 C 21,4 C 21,4 C 1,4 C 42 % 45 % 37 % 1013,7 hPa 0,0 l/m 8,4 km/h (2 Bft) SW 225 0 min 1,7 UV-I 6,7 C 21,4 C 5,8 km/h (2 Bft)
27.05.2011 14:40 20,0 C 18,4 C 19,3 C 21,2 C 21,2 C 1,2 C 42 % 45 % 32 % 1013,7 hPa 0,0 l/m 7,9 km/h (2 Bft) SW 225 0 min 1,7 UV-I 6,7 C 21,2 C 7,9 km/h (2 Bft)
27.05.2011 14:45 19,9 C 18,4 C 19,1 C 21,1 C 21,1 C 1,2 C 43 % 48 % 32 % 1013,7 hPa 0,0 l/m 7,4 km/h (2 Bft) SW 225 0 min 1,2 UV-I 6,9 C 21,1 C 10,9 km/h (2 Bft)
27.05.2011 14:50 19,7 C 18,4 C 18,7 C 20,2 C 20,2 C 0,5 C 43 % 47 % 13 % 1014,0 hPa 0,0 l/m 6,3 km/h (2 Bft) S-SW 202 0 min 0,6 UV-I 6,8 C 20,2 C 7,2 km/h (2 Bft)
27.05.2011 14:55 19,6 C 18,4 C 18,7 C 20,0 C 20,0 C 0,4 C 44 % 50 % 11 % 1014,0 hPa 0,0 l/m 6,0 km/h (2 Bft) S-SO 157 0 min 0,8 UV-I 7,0 C 20,0 C 4,3 km/h (1 Bft)
27.05.2011 15:00 19,6 C 18,4 C 18,8 C 20,8 C 20,8 C 1,2 C 44 % 46 % 32 % 1014,0 hPa 0,0 l/m 5,8 km/h (2 Bft) W-SW 247 0 min 1,6 UV-I 7,0 C 20,8 C 4,8 km/h (1 Bft)
27.05.2011 15:08 19,6 C 18,4 C 18,7 C 20,7 C 20,7 C 1,1 C 44 % 49 % 29 % 1014,0 hPa 0,0 l/m 5,0 km/h (1 Bft) N 0 0 min 1,2 UV-I 7,0 C 20,7 C 7,2 km/h (2 Bft)
27.05.2011 15:15 19,5 C 18,4 C 18,1 C 20,5 C 20,5 C 1,0 C 45 % 53 % 26 % 1014,2 hPa 0,0 l/m 6,1 km/h (2 Bft) S 180 0 min 1,2 UV-I 7,2 C 20,5 C 4,3 km/h (1 Bft)
27.05.2011 15:20 19,5 C 18,5 C 18,0 C 20,3 C 20,3 C 0,8 C 44 % 53 % 21 % 1014,2 hPa 0,0 l/m 6,0 km/h (2 Bft) W-SW 247 0 min 1,2 UV-I 6,9 C 20,3 C 4,5 km/h (1 Bft)
27.05.2011 15:25 19,5 C 18,5 C 17,8 C 20,2 C 20,2 C 0,7 C 45 % 54 % 18 % 1014,2 hPa 0,0 l/m 5,1 km/h (1 Bft) S 180 0 min 0,9 UV-I 7,2 C 20,2 C 2,9 km/h (1 Bft)
27.05.2011 15:30 19,3 C 18,5 C 17,8 C 20,1 C 20,1 C 0,8 C 46 % 57 % 21 % 1014,1 hPa 0,0 l/m 5,0 km/h (1 Bft) W-SW 247 0 min 0,9 UV-I 7,4 C 20,1 C 8,0 km/h (2 Bft)
27.05.2011 15:35 19,4 C 18,5 C 17,9 C 20,1 C 20,1 C 0,7 C 46 % 53 % 18 % 1014,1 hPa 0,0 l/m 5,3 km/h (1 Bft) S-SW 202 0 min 1,0 UV-I 7,5 C 20,1 C 7,1 km/h (2 Bft)
27.05.2011 15:40 19,3 C 18,5 C 18,0 C 20,4 C 20,4 C 1,1 C 46 % 55 % 29 % 1014,1 hPa 0,0 l/m 6,9 km/h (2 Bft) SW 225 0 min 1,3 UV-I 7,4 C 20,4 C 10,8 km/h (2 Bft)
27.05.2011 15:45 19,3 C 18,5 C 17,9 C 20,2 C 20,2 C 0,9 C 46 % 54 % 24 % 1014,1 hPa 0,0 l/m 6,1 km/h (2 Bft) W-SW 247 0 min 1,0 UV-I 7,4 C 20,2 C 4,3 km/h (1 Bft)
27.05.2011 15:50 19,3 C 18,5 C 17,7 C 20,0 C 20,0 C 0,7 C 46 % 53 % 18 % 1014,2 hPa 0,0 l/m 5,1 km/h (1 Bft) W-SW 247 0 min 0,8 UV-I 7,4 C 20,0 C 7,4 km/h (2 Bft)
27.05.2011 15:55 19,1 C 18,5 C 17,7 C 19,8 C 19,8 C 0,7 C 47 % 56 % 18 % 1014,2 hPa 0,0 l/m 5,0 km/h (1 Bft) O 90 0 min 0,7 UV-I 7,5 C 19,8 C 3,9 km/h (1 Bft)
27.05.2011 16:00 19,1 C 18,5 C 17,6 C 19,5 C 19,5 C 0,4 C 48 % 57 % 11 % 1014,2 hPa 0,0 l/m 5,0 km/h (1 Bft) S 180 0 min 0,6 UV-I 7,8 C 19,5 C 7,9 km/h (2 Bft)
27.05.2011 16:08 19,1 C 18,5 C 17,5 C 19,5 C 19,5 C 0,4 C 47 % 55 % 11 % 1014,2 hPa 0,0 l/m 5,1 km/h (1 Bft) N 0 0 min 0,8 UV-I 7,5 C 19,5 C 9,0 km/h (2 Bft)
27.05.2011 16:15 18,9 C 18,5 C 17,5 C 19,2 C 19,2 C 0,3 C 48 % 55 % 8 % 1014,2 hPa 0,0 l/m 5,6 km/h (1 Bft) S 180 0 min 0,7 UV-I 7,6 C 19,2 C 6,8 km/h (2 Bft)
27.05.2011 16:20 18,8 C 18,6 C 17,2 C 18,8 C 18,8 C 0,0 C 49 % 58 % 0 % 1014,2 hPa 0,0 l/m 5,5 km/h (1 Bft) S 180 0 min 0,6 UV-I 7,9 C 18,8 C 3,7 km/h (1 Bft)
27.05.2011 16:25 18,7 C 18,6 C 17,3 C 18,9 C 18,9 C 0,2 C 49 % 58 % 5 % 1014,2 hPa 0,0 l/m 4,3 km/h (1 Bft) S 180 0 min 0,7 UV-I 7,8 C 18,9 C 1,8 km/h (1 Bft)
27.05.2011 16:30 18,7 C 18,6 C 17,2 C 19,0 C 19,0 C 0,3 C 49 % 56 % 8 % 1014,4 hPa 0,0 l/m 3,4 km/h (1 Bft) S 180 0 min 0,6 UV-I 7,8 C 19,0 C 4,8 km/h (1 Bft)
27.05.2011 16:35 18,6 C 18,6 C 17,2 C 19,0 C 19,0 C 0,4 C 50 % 57 % 11 % 1014,4 hPa 0,0 l/m 3,9 km/h (1 Bft) SW 225 0 min 0,6 UV-I 8,0 C 19,0 C 7,1 km/h (2 Bft)
27.05.2011 16:40 18,5 C 18,6 C 17,1 C 18,7 C 18,7 C 0,2 C 49 % 57 % 5 % 1014,4 hPa 0,0 l/m 4,5 km/h (1 Bft) S 180 0 min 0,5 UV-I 7,6 C 18,7 C 5,3 km/h (1 Bft)
27.05.2011 16:45 18,5 C 18,6 C 17,0 C 18,6 C 18,6 C 0,1 C 50 % 57 % 3 % 1014,4 hPa 0,0 l/m 4,2 km/h (1 Bft) S-SW 202 0 min 0,4 UV-I 7,9 C 18,6 C 2,7 km/h (1 Bft)
27.05.2011 16:50 18,5 C 18,6 C 17,0 C 18,6 C 18,6 C 0,1 C 51 % 60 % 3 % 1014,6 hPa 0,0 l/m 3,4 km/h (1 Bft) SO 135 0 min 0,4 UV-I 8,2 C 18,6 C 7,1 km/h (2 Bft)
27.05.2011 16:55 18,5 C 18,6 C 17,1 C 18,5 C 18,5 C 0,0 C 51 % 59 % 0 % 1014,6 hPa 0,0 l/m 3,9 km/h (1 Bft) S 180 0 min 0,5 UV-I 8,2 C 18,5 C 5,0 km/h (1 Bft)
27.05.2011 17:00 18,5 C 18,6 C 17,0 C 18,5 C 18,4 C 0,0 C 52 % 61 % 0 % 1014,6 hPa 0,0 l/m 4,3 km/h (1 Bft) N 360 0 min 0,4 UV-I 8,5 C 18,4 C 6,9 km/h (2 Bft)
27.05.2011 17:08 18,4 C 18,6 C 16,9 C 18,4 C 18,3 C 0,0 C 51 % 59 % 0 % 1014,6 hPa 0,0 l/m 5,0 km/h (1 Bft) N 0 0 min 0,4 UV-I 8,1 C 18,3 C 5,5 km/h (1 Bft)
27.05.2011 17:15 18,3 C 18,6 C 16,8 C 18,2 C 18,0 C 0,0 C 50 % 56 % 0 % 1014,8 hPa 0,0 l/m 5,3 km/h (1 Bft) S 180 0 min 0,3 UV-I 7,7 C 18,0 C 5,8 km/h (2 Bft)
27.05.2011 17:20 18,2 C 18,6 C 16,9 C 18,1 C 18,0 C 0,0 C 51 % 57 % 0 % 1014,8 hPa 0,0 l/m 4,8 km/h (1 Bft) S 180 0 min 0,4 UV-I 7,9 C 18,0 C 7,2 km/h (2 Bft)
27.05.2011 17:25 18,3 C 18,6 C 16,9 C 18,2 C 18,1 C 0,0 C 50 % 56 % 0 % 1014,8 hPa 0,0 l/m 5,1 km/h (1 Bft) SW 225 0 min 0,4 UV-I 7,7 C 18,1 C 11,3 km/h (2 Bft)
27.05.2011 17:30 18,3 C 18,6 C 16,9 C 18,2 C 18,1 C 0,0 C 51 % 58 % 0 % 1014,8 hPa 0,0 l/m 5,0 km/h (1 Bft) W-SW 247 0 min 0,4 UV-I 8,0 C 18,1 C 7,1 km/h (2 Bft)
27.05.2011 17:35 18,3 C 18,6 C 16,8 C 18,2 C 18,1 C 0,0 C 52 % 61 % 0 % 1014,8 hPa 0,0 l/m 4,0 km/h (1 Bft) O-SO 112 0 min 0,3 UV-I 8,3 C 18,1 C 3,5 km/h (1 Bft)
27.05.2011 17:40 18,1 C 18,6 C 16,7 C 18,0 C 17,9 C 0,0 C 51 % 59 % 0 % 1014,8 hPa 0,0 l/m 4,0 km/h (1 Bft) SW 225 0 min 0,3 UV-I 7,8 C 17,9 C 5,1 km/h (1 Bft)
27.05.2011 17:45 18,1 C 18,6 C 16,7 C 18,0 C 17,9 C 0,0 C 52 % 59 % 0 % 1014,8 hPa 0,0 l/m 4,5 km/h (1 Bft) S-SW 202 0 min 0,3 UV-I 8,1 C 17,9 C 5,8 km/h (2 Bft)
27.05.2011 17:50 18,1 C 18,6 C 16,7 C 18,0 C 17,8 C 0,0 C 52 % 61 % 0 % 1014,8 hPa 0,0 l/m 4,7 km/h (1 Bft) SW 225 0 min 0,2 UV-I 8,1 C 17,8 C 6,9 km/h (2 Bft)
27.05.2011 17:55 18,1 C 18,6 C 16,7 C 18,0 C 17,8 C 0,0 C 52 % 58 % 0 % 1014,8 hPa 0,0 l/m 5,0 km/h (1 Bft) W-SW 247 0 min 0,2 UV-I 8,1 C 17,8 C 8,0 km/h (2 Bft)
27.05.2011 18:00 18,0 C 18,6 C 16,7 C 17,9 C 17,7 C 0,0 C 52 % 60 % 0 % 1014,8 hPa 0,0 l/m 5,1 km/h (1 Bft) S 180 0 min 0,2 UV-I 8,0 C 17,7 C 7,2 km/h (2 Bft)
27.05.2011 18:08 18,1 C 18,6 C 16,7 C 18,0 C 17,7 C 0,0 C 52 % 56 % 0 % 1014,8 hPa 0,0 l/m 4,8 km/h (1 Bft) N 0 0 min 0,2 UV-I 8,1 C 17,7 C 9,0 km/h (2 Bft)
27.05.2011 18:15 17,9 C 18,7 C 16,5 C 17,7 C 17,4 C 0,0 C 52 % 57 % 0 % 1014,9 hPa 0,0 l/m 6,3 km/h (2 Bft) SW 225 0 min 0,1 UV-I 7,9 C 17,4 C 8,7 km/h (2 Bft)
27.05.2011 18:20 17,7 C 18,7 C 16,4 C 17,5 C 17,2 C 0,0 C 52 % 59 % 0 % 1014,9 hPa 0,0 l/m 6,8 km/h (2 Bft) W-SW 247 0 min 0,1 UV-I 7,7 C 17,2 C 12,4 km/h (3 Bft)
27.05.2011 18:25 17,7 C 18,7 C 16,4 C 17,5 C 17,1 C 0,0 C 52 % 59 % 0 % 1014,9 hPa 0,0 l/m 6,6 km/h (2 Bft) SW 225 0 min 0,1 UV-I 7,7 C 17,1 C 7,6 km/h (2 Bft)
27.05.2011 18:30 17,6 C 18,7 C 16,4 C 17,4 C 17,0 C 0,0 C 52 % 59 % 0 % 1015,1 hPa 0,0 l/m 6,4 km/h (2 Bft) S 180 0 min 0,1 UV-I 7,6 C 17,0 C 5,8 km/h (2 Bft)
27.05.2011 18:35 17,6 C 18,7 C 16,3 C 17,4 C 17,0 C 0,0 C 52 % 59 % 0 % 1015,1 hPa 0,0 l/m 6,0 km/h (2 Bft) SW 225 0 min 0,1 UV-I 7,6 C 17,0 C 7,4 km/h (2 Bft)
27.05.2011 18:40 17,5 C 18,7 C 16,3 C 17,3 C 16,8 C 0,0 C 52 % 59 % 0 % 1015,1 hPa 0,0 l/m 6,9 km/h (2 Bft) S-SW 202 0 min 0,1 UV-I 7,5 C 16,8 C 11,9 km/h (2 Bft)
27.05.2011 18:45 17,5 C 18,7 C 16,3 C 17,3 C 16,8 C 0,0 C 52 % 58 % 0 % 1015,1 hPa 0,0 l/m 7,6 km/h (2 Bft) S 180 0 min 0,1 UV-I 7,5 C 16,8 C 6,6 km/h (2 Bft)
27.05.2011 18:50 17,3 C 18,7 C 16,1 C 17,1 C 16,6 C 0,0 C 52 % 58 % 0 % 1014,9 hPa 0,0 l/m 6,0 km/h (2 Bft) S 180 0 min 0,1 UV-I 7,3 C 16,6 C 7,6 km/h (2 Bft)
27.05.2011 18:55 17,3 C 18,7 C 16,0 C 17,0 C 16,5 C 0,0 C 53 % 59 % 0 % 1014,9 hPa 0,0 l/m 5,3 km/h (1 Bft) SW 225 0 min 0,1 UV-I 7,6 C 16,5 C 4,5 km/h (1 Bft)
27.05.2011 19:00 17,2 C 18,7 C 16,0 C 16,9 C 16,4 C 0,0 C 53 % 61 % 0 % 1014,9 hPa 0,0 l/m 3,9 km/h (1 Bft) S 180 0 min 0,0 UV-I 7,5 C 16,4 C 3,7 km/h (1 Bft)
27.05.2011 19:08 17,3 C 18,7 C 16,0 C 17,0 C 16,3 C 0,0 C 54 % 60 % 0 % 1014,9 hPa 0,0 l/m 3,9 km/h (1 Bft) N 0 0 min 0,0 UV-I 7,9 C 16,3 C 5,0 km/h (1 Bft)
27.05.2011 19:15 17,2 C 18,7 C 15,9 C 16,9 C 16,2 C 0,0 C 54 % 61 % 0 % 1014,8 hPa 0,0 l/m 4,0 km/h (1 Bft) S-SO 157 0 min 0,0 UV-I 7,8 C 16,2 C 3,9 km/h (1 Bft)
27.05.2011 19:20 17,1 C 18,7 C 15,9 C 16,8 C 16,1 C 0,0 C 54 % 63 % 0 % 1014,8 hPa 0,0 l/m 3,7 km/h (1 Bft) SW 225 0 min 0,0 UV-I 7,7 C 16,1 C 5,1 km/h (1 Bft)
27.05.2011 19:25 17,1 C 18,7 C 15,7 C 16,8 C 16,1 C 0,0 C 55 % 62 % 0 % 1014,8 hPa 0,0 l/m 3,9 km/h (1 Bft) S 180 0 min 0,0 UV-I 8,0 C 16,1 C 5,1 km/h (1 Bft)
27.05.2011 19:30 17,1 C 18,7 C 15,7 C 16,7 C 16,0 C 0,0 C 55 % 63 % 0 % 1015,0 hPa 0,0 l/m 3,9 km/h (1 Bft) SW 225 0 min 0,0 UV-I 8,0 C 16,0 C 3,7 km/h (1 Bft)
27.05.2011 19:35 17,0 C 18,7 C 15,7 C 16,6 C 15,9 C 0,0 C 55 % 64 % 0 % 1015,0 hPa 0,0 l/m 3,7 km/h (1 Bft) S-SO 157 0 min 0,0 UV-I 7,9 C 15,9 C 3,9 km/h (1 Bft)
27.05.2011 19:40 16,9 C 18,6 C 15,6 C 16,5 C 15,7 C 0,0 C 55 % 63 % 0 % 1015,0 hPa 0,0 l/m 3,5 km/h (1 Bft) S-SW 202 0 min 0,0 UV-I 7,8 C 15,7 C 1,9 km/h (1 Bft)
27.05.2011 19:45 16,9 C 18,6 C 15,6 C 16,5 C 15,7 C 0,0 C 55 % 64 % 0 % 1015,0 hPa 0,0 l/m 3,1 km/h (1 Bft) W-SW 247 0 min 0,0 UV-I 7,8 C 15,7 C 2,6 km/h (1 Bft)
27.05.2011 19:50 16,8 C 18,6 C 15,5 C 16,4 C 15,6 C 0,0 C 56 % 64 % 0 % 1015,0 hPa 0,0 l/m 3,1 km/h (1 Bft) S 180 0 min 0,0 UV-I 8,0 C 15,6 C 5,1 km/h (1 Bft)
27.05.2011 19:55 16,8 C 18,6 C 15,5 C 16,4 C 15,6 C 0,0 C 56 % 65 % 0 % 1015,0 hPa 0,0 l/m 3,4 km/h (1 Bft) SW 225 0 min 0,0 UV-I 8,0 C 15,6 C 3,5 km/h (1 Bft)
27.05.2011 20:00 16,8 C 18,6 C 15,5 C 16,4 C 15,6 C 0,0 C 56 % 64 % 0 % 1015,0 hPa 0,0 l/m 3,5 km/h (1 Bft) S-SW 202 0 min 0,0 UV-I 8,0 C 15,6 C 6,3 km/h (2 Bft)
27.05.2011 20:08 16,8 C 18,6 C 15,5 C 16,4 C 15,6 C 0,0 C 56 % 65 % 0 % 1015,0 hPa 0,0 l/m 3,9 km/h (1 Bft) N 0 0 min 0,0 UV-I 8,0 C 15,6 C 4,2 km/h (1 Bft)
27.05.2011 20:15 16,7 C 18,6 C 15,3 C 16,3 C 15,5 C 0,0 C 57 % 64 % 0 % 1015,4 hPa 0,0 l/m 4,3 km/h (1 Bft) S 180 0 min 0,0 UV-I 8,1 C 15,5 C 6,4 km/h (2 Bft)
27.05.2011 20:20 16,7 C 18,6 C 15,3 C 16,3 C 15,5 C 0,0 C 57 % 66 % 0 % 1015,4 hPa 0,0 l/m 4,5 km/h (1 Bft) SW 225 0 min 0,0 UV-I 8,1 C 15,5 C 6,6 km/h (2 Bft)
27.05.2011 20:25 16,7 C 18,6 C 15,2 C 16,3 C 15,4 C 0,0 C 57 % 66 % 0 % 1015,4 hPa 0,0 l/m 4,3 km/h (1 Bft) S 180 0 min 0,0 UV-I 8,1 C 15,4 C 5,8 km/h (2 Bft)
27.05.2011 20:30 16,6 C 18,6 C 15,2 C 16,2 C 15,3 C 0,0 C 57 % 65 % 0 % 1015,9 hPa 0,0 l/m 4,5 km/h (1 Bft) SW 225 0 min 0,0 UV-I 8,0 C 15,3 C 4,8 km/h (1 Bft)
27.05.2011 20:35 16,7 C 18,6 C 15,2 C 16,2 C 15,2 C 0,0 C 57 % 65 % 0 % 1015,9 hPa 0,0 l/m 4,7 km/h (1 Bft) S-SO 157 0 min 0,0 UV-I 8,1 C 15,2 C 7,7 km/h (2 Bft)
27.05.2011 20:40 16,5 C 18,6 C 15,1 C 16,0 C 15,1 C 0,0 C 57 % 65 % 0 % 1015,9 hPa 0,0 l/m 4,3 km/h (1 Bft) S 180 0 min 0,0 UV-I 8,0 C 15,1 C 6,1 km/h (2 Bft)
27.05.2011 20:45 16,5 C 18,6 C 15,1 C 16,0 C 15,0 C 0,0 C 57 % 66 % 0 % 1015,9 hPa 0,0 l/m 4,7 km/h (1 Bft) SW 225 0 min 0,0 UV-I 8,0 C 15,0 C 8,2 km/h (2 Bft)
27.05.2011 20:50 16,4 C 18,6 C 14,9 C 15,9 C 14,9 C 0,0 C 57 % 66 % 0 % 1015,7 hPa 0,0 l/m 4,8 km/h (1 Bft) S-SO 157 0 min 0,0 UV-I 7,9 C 14,9 C 4,2 km/h (1 Bft)
27.05.2011 20:55 16,4 C 18,5 C 14,8 C 15,9 C 14,8 C 0,0 C 57 % 66 % 0 % 1015,7 hPa 0,0 l/m 3,9 km/h (1 Bft) S-SW 202 0 min 0,0 UV-I 7,9 C 14,8 C 4,7 km/h (1 Bft)
27.05.2011 21:00 16,3 C 18,5 C 14,9 C 15,7 C 14,5 C 0,0 C 58 % 65 % 0 % 1015,7 hPa 0,0 l/m 3,1 km/h (1 Bft) W-SW 247 0 min 0,0 UV-I 8,0 C 14,5 C 3,4 km/h (1 Bft)
27.05.2011 21:08 16,2 C 18,5 C 14,7 C 15,6 C 14,4 C 0,0 C 58 % 67 % 0 % 1015,7 hPa 0,0 l/m 2,9 km/h (1 Bft) N 0 0 min 0,0 UV-I 7,9 C 14,4 C 0,0 km/h (0 Bft)
27.05.2011 21:15 16,1 C 18,5 C 14,6 C 15,4 C 14,1 C 0,0 C 58 % 65 % 0 % 1016,2 hPa 0,0 l/m 2,3 km/h (1 Bft) SW 225 0 min 0,0 UV-I 7,8 C 14,1 C 2,1 km/h (1 Bft)
27.05.2011 21:20 16,0 C 18,6 C 14,5 C 15,3 C 13,8 C 0,0 C 58 % 66 % 0 % 1016,2 hPa 0,0 l/m 2,4 km/h (1 Bft) SW 225 0 min 0,0 UV-I 7,7 C 13,8 C 3,2 km/h (1 Bft)
27.05.2011 21:25 16,0 C 18,6 C 14,4 C 15,3 C 13,8 C 0,0 C 59 % 67 % 0 % 1016,2 hPa 0,0 l/m 2,6 km/h (1 Bft) SW 225 0 min 0,0 UV-I 8,0 C 13,8 C 2,3 km/h (1 Bft)
27.05.2011 21:30 15,9 C 18,6 C 14,3 C 15,1 C 13,6 C 0,0 C 59 % 68 % 0 % 1016,4 hPa 0,0 l/m 2,9 km/h (1 Bft) S-SW 202 0 min 0,0 UV-I 7,9 C 13,6 C 2,7 km/h (1 Bft)
27.05.2011 21:35 15,8 C 18,6 C 14,3 C 15,0 C 13,5 C 0,0 C 59 % 68 % 0 % 1016,4 hPa 0,0 l/m 2,4 km/h (1 Bft) SW 225 0 min 0,0 UV-I 7,8 C 13,5 C 3,1 km/h (1 Bft)
27.05.2011 21:40 15,8 C 18,6 C 14,1 C 15,0 C 13,3 C 0,0 C 60 % 69 % 0 % 1016,4 hPa 0,0 l/m 2,7 km/h (1 Bft) S-SW 202 0 min 0,0 UV-I 8,1 C 13,3 C 2,7 km/h (1 Bft)
27.05.2011 21:45 15,7 C 18,6 C 14,1 C 14,9 C 13,2 C 0,0 C 60 % 68 % 0 % 1016,4 hPa 0,0 l/m 2,9 km/h (1 Bft) W-SW 247 0 min 0,0 UV-I 8,0 C 13,2 C 5,1 km/h (1 Bft)
27.05.2011 21:50 15,7 C 18,6 C 14,0 C 14,9 C 13,2 C 0,0 C 61 % 70 % 0 % 1016,4 hPa 0,0 l/m 2,4 km/h (1 Bft) S 180 0 min 0,0 UV-I 8,2 C 13,2 C 2,4 km/h (1 Bft)
27.05.2011 21:55 15,7 C 18,5 C 14,0 C 14,9 C 13,2 C 0,0 C 61 % 69 % 0 % 1016,4 hPa 0,0 l/m 1,9 km/h (1 Bft) SW 225 0 min 0,0 UV-I 8,2 C 13,2 C 4,5 km/h (1 Bft)
27.05.2011 22:00 15,6 C 18,5 C 13,9 C 14,8 C 13,1 C 0,0 C 61 % 70 % 0 % 1016,4 hPa 0,0 l/m 1,8 km/h (1 Bft) W-SW 247 0 min 0,0 UV-I 8,1 C 13,1 C 3,1 km/h (1 Bft)
27.05.2011 22:08 15,5 C 18,5 C 13,8 C 14,7 C 13,0 C 0,0 C 61 % 71 % 0 % 1016,4 hPa 0,0 l/m 1,8 km/h (1 Bft) N 0 0 min 0,0 UV-I 8,0 C 13,0 C 1,9 km/h (1 Bft)
27.05.2011 22:15 15,5 C 18,5 C 13,6 C 14,6 C 12,8 C 0,0 C 62 % 72 % 0 % 1016,6 hPa 0,0 l/m 1,0 km/h (0 Bft) SW 225 0 min 0,0 UV-I 8,3 C 12,8 C 1,6 km/h (1 Bft)
27.05.2011 22:20 15,2 C 18,5 C 13,6 C 14,3 C 12,6 C 0,0 C 63 % 72 % 0 % 1016,6 hPa 0,0 l/m 1,1 km/h (1 Bft) S-SO 157 0 min 0,0 UV-I 8,2 C 12,6 C 0,0 km/h (0 Bft)
27.05.2011 22:25 15,2 C 18,5 C 13,5 C 14,3 C 12,4 C 0,0 C 63 % 72 % 0 % 1016,6 hPa 0,0 l/m 0,6 km/h (0 Bft) SW 225 0 min 0,0 UV-I 8,2 C 12,4 C 0,0 km/h (0 Bft)
27.05.2011 22:30 15,1 C 18,5 C 13,5 C 14,1 C 12,2 C 0,0 C 64 % 72 % 0 % 1017,1 hPa 0,0 l/m 0,0 km/h (0 Bft) SW 225 0 min 0,0 UV-I 8,3 C 12,2 C 0,0 km/h (0 Bft)
27.05.2011 22:35 14,9 C 18,5 C 13,3 C 13,9 C 12,0 C 0,0 C 64 % 73 % 0 % 1017,1 hPa 0,0 l/m 0,0 km/h (0 Bft) SW 225 0 min 0,0 UV-I 8,2 C 12,0 C 1,8 km/h (1 Bft)
27.05.2011 22:40 14,8 C 18,5 C 13,3 C 13,9 C 12,0 C 0,0 C 65 % 73 % 0 % 1017,1 hPa 0,0 l/m 0,5 km/h (0 Bft) SW 225 0 min 0,0 UV-I 8,3 C 12,0 C 1,8 km/h (1 Bft)
27.05.2011 22:45 14,8 C 18,5 C 13,3 C 13,9 C 12,0 C 0,0 C 64 % 73 % 0 % 1017,1 hPa 0,0 l/m 0,6 km/h (0 Bft) SW 225 0 min 0,0 UV-I 8,1 C 12,0 C 0,0 km/h (0 Bft)
27.05.2011 22:50 14,7 C 18,5 C 13,1 C 13,8 C 12,0 C 0,0 C 65 % 73 % 0 % 1016,9 hPa 0,0 l/m 0,3 km/h (0 Bft) O-NO 67 0 min 0,0 UV-I 8,2 C 12,0 C 0,0 km/h (0 Bft)
27.05.2011 22:55 14,5 C 18,4 C 13,1 C 13,6 C 11,9 C 0,0 C 65 % 73 % 0 % 1016,9 hPa 0,0 l/m 0,2 km/h (0 Bft) S 180 0 min 0,0 UV-I 8,0 C 11,9 C 0,0 km/h (0 Bft)
27.05.2011 23:00 14,7 C 18,4 C 13,1 C 13,8 C 12,0 C 0,0 C 65 % 74 % 0 % 1016,9 hPa 0,0 l/m 1,6 km/h (1 Bft) SW 225 0 min 0,0 UV-I 8,2 C 12,0 C 4,7 km/h (1 Bft)
27.05.2011 23:08 14,6 C 18,4 C 13,1 C 13,8 C 12,1 C 0,0 C 65 % 75 % 0 % 1016,9 hPa 0,0 l/m 2,6 km/h (1 Bft) N 0 0 min 0,0 UV-I 8,1 C 12,1 C 5,5 km/h (1 Bft)
27.05.2011 23:15 14,7 C 18,4 C 13,0 C 13,9 C 12,2 C 0,0 C 65 % 75 % 0 % 1017,2 hPa 0,0 l/m 2,1 km/h (1 Bft) S 180 0 min 0,0 UV-I 8,2 C 12,2 C 3,9 km/h (1 Bft)
27.05.2011 23:20 14,7 C 18,4 C 12,8 C 13,8 C 12,1 C 0,0 C 66 % 76 % 0 % 1017,2 hPa 0,0 l/m 1,9 km/h (1 Bft) S-SW 202 0 min 0,0 UV-I 8,4 C 12,1 C 1,9 km/h (1 Bft)
27.05.2011 23:25 14,5 C 18,4 C 12,8 C 13,7 C 12,0 C 0,0 C 66 % 76 % 0 % 1017,2 hPa 0,0 l/m 1,8 km/h (1 Bft) W 270 0 min 0,0 UV-I 8,2 C 12,0 C 1,9 km/h (1 Bft)
27.05.2011 23:30 14,4 C 18,4 C 12,9 C 13,6 C 12,0 C 0,0 C 67 % 76 % 0 % 1017,0 hPa 0,0 l/m 0,8 km/h (0 Bft) W-SW 247 0 min 0,0 UV-I 8,4 C 12,0 C 1,6 km/h (1 Bft)
27.05.2011 23:35 14,5 C 18,4 C 12,9 C 13,7 C 12,0 C 0,0 C 67 % 76 % 0 % 1017,0 hPa 0,0 l/m 0,5 km/h (0 Bft) SW 225 0 min 0,0 UV-I 8,4 C 12,0 C 0,0 km/h (0 Bft)
27.05.2011 23:40 14,5 C 18,4 C 12,7 C 13,7 C 12,0 C 0,0 C 66 % 75 % 0 % 1017,0 hPa 0,0 l/m 1,0 km/h (0 Bft) SW 225 0 min 0,0 UV-I 8,2 C 12,0 C 0,0 km/h (0 Bft)
27.05.2011 23:45 14,5 C 18,3 C 12,7 C 13,7 C 12,0 C 0,0 C 66 % 75 % 0 % 1017,0 hPa 0,0 l/m 1,8 km/h (1 Bft) S 180 0 min 0,0 UV-I 8,2 C 12,0 C 2,7 km/h (1 Bft)
27.05.2011 23:50 14,5 C 18,3 C 12,7 C 13,7 C 12,1 C 0,0 C 65 % 75 % 0 % 1017,1 hPa 0,0 l/m 2,6 km/h (1 Bft) S 180 0 min 0,0 UV-I 8,0 C 12,1 C 5,1 km/h (1 Bft)
27.05.2011 23:55 14,4 C 18,3 C 12,7 C 13,6 C 12,1 C 0,0 C 65 % 74 % 0 % 1017,1 hPa 0,0 l/m 2,9 km/h (1 Bft) SW 225 0 min 0,0 UV-I 7,9 C 12,1 C 6,1 km/h (2 Bft)
_ Min-Zeit 23:30 10:25 23:40 22:55 22:55 00:00 14:15 14:25 00:00 00:00 - 22:30 - - - 00:00 14:30 22:55 03:08
Minimum _ 14,4 C 18,3 C 12,7 C 13,6 C 11,9 C 0,0 C 41 % 42 % 0 % 1010,8 hPa - 0,0 km/h (0 Bft) - - - 0,0 UV-I 6,3 C 11,9 C 0,0 km/h (0 Bft)
_ Max-Zeit 13:50 00:00 14:20 14:20 14:20 10:55 01:00 23:20 09:50 23:15 00:00 13:15 - - 10:08 13:50 01:10 14:20 10:35
Maximum _ 20,5 C 19,8 C 20,5 C 23,1 C 23,1 C 4,3 C 67 % 76 % 100 % 1017,2 hPa 0,0 l/m 11,1 km/h
SO (2 Bft)
- - 8 min 4,0 UV-I 12,3 C 23,1 C 21,6 km/h
W-SW (4 Bft)
Durchschnitt _ 17,3 C 18,7 C 15,8 C 17,5 C 16,8 C 0,5 C 57 % 65 % 14 % 1013,8 hPa #0,0 l/m 4,7 km/h (1 Bft) S - #43 min. 1,1 UV-I 8,4 C 16,8 C 6,3 km/h (2 Bft)
2013 www.wetterstation-wechselburg.de